Showing default

GLOBALSTAR M043, 25874

Orbit data source: Space-Track

GLOBALSTAR M043, 25874 is a payload satellite owned by Globalstar (US) in LEO that was launched on Sun, 25 Jul 1999 UTC via a DELTA 7420-10C launch vehicle from the Air Force Eastern Test Range (AFETR). Payload-class satellites include a variety of spacecraft equipped with specific instruments for various scientific and technological missions. These include communications satellites like Starlink; space stations such as the ISS; scientific satellites like the Hubble; Earth observation satellites from companies like Planet Labs, Umbra, and HawkEye 360; GPS; miniature CubeSats for education and research; and military/defense satellites.

Loading next visibility...
Identifier
25874, 1999-041C
Orbit
LEO
Last TLE update
11 hours ago
Origin
Manufacturer
SS/Loral
Mission
Non-operational Commercial Communications
Bus & Motor
LS-400, LS-400 AOCS
Mass
450 kg wet, 380 kg dry
Launch date (UTC)
1999-07-25 (26 years ago)
Launch vehicle
DELTA 7420-10C
Launch site
Air Force Eastern Test Range (AFETR)
Object type
Payload
Rocket body
Debris
Shape & HBR
Box + 2 Pan, 12 m
Radar Cross Section
5.587 m², Large (>1 m²)

Expand to show TLE details & history

TLE from 11 hours ago
0 GLOBALSTAR M043
1 25874U 99041C   25188.85573323 -.00000100  00000-0 -95134-3 0  9997
2 25874  51.9424  35.3326 0013433 350.5632  22.0988 11.25695185125205
Epoch: 2025-07-07T20:32Z
TLE epoch observation values (Epoch: 2025-07-07T20:32:15.351Z)
Latitude
9.97175°
Longitude
169.08463°
Altitude
2,021.14 km
Speed
6.896 km/s
True Right ascension
02h 52m 49s
True Declination
9° 55' 19"
Sunlit
Object was in daylight at epoch
Visualization orbit readout
Latitude
47.93552°
Longitude
-140.14351°
Altitude
2,034.918 km
Speed
6.89 km/s
Apparent Right ascension
06h 53m 49s
Apparent Declination
11° 42' 56"
Sunlit
Object is in daylight
Visualization observer readout
Local Sidereal Time
19:37:33
Azimuth
13.516° NNE
Elevation
-37.379°
Doppler factor
1
Orbital elements
Apogee altitude
2,043.377 km
Perigee altitude
2,020.782 km
Semi-major axis
8,410.216 km
Eccentricity
0.00134
Inclination
51.9424°
RAAN
35.3326°
Arg. of periapsis
350.5632°
True anomaly
Unknown
Mean anomaly
22.0988°
Eccentric anomaly
Unknown
Mean motion
2.81405 °/min
Orbital period
127.93 mins
BSTAR
-0.00095134
Loading maneuver chart data...
Loading SW <> Apogee altitude chart data...
Loading historical data...
Loading historical data...
Loading historical data...
Loading historical data...
Loading historical data...
Loading historical data...
Loading historical data...
Other satellites on launch #41 in the year 1999 (1999-07-25 UTC)

GLOBALSTAR M043 Visibility forecast

Observer location: undefined°, undefined°

Span
Click to sort rows by Start time (UTC) header in descending order
Start Az.
Max El. time (UTC)
Max El. Az.
Max El.
End time (UTC)
End Az.
11 mins2025-07-08 13:36:58.980Z142.129° SSE2025-07-08 13:41:58.980Z115.332° SE14.743°2025-07-08 13:47:58.980Z83.445° E
21 mins2025-07-08 15:44:58.980Z207.836° SW2025-07-08 15:54:58.980Z136.368° SSE41.638°2025-07-08 16:05:58.980Z56.211° ENE
22 mins2025-07-08 17:59:58.980Z258.375° W2025-07-08 18:10:58.980Z345.385° N40.756°2025-07-08 18:21:58.980Z55.237° ENE
21 mins2025-07-08 20:17:58.980Z296° NW2025-07-08 20:27:58.980Z6.479° NNE36.139°2025-07-08 20:38:58.980Z77.015° E
22 mins2025-07-08 22:33:58.980Z307.654° NW2025-07-08 22:44:58.980Z42.135° NE43.958°2025-07-08 22:55:58.980Z118.172° SE
20 mins2025-07-09 00:49:58.980Z296.526° NW2025-07-09 00:58:58.980Z237.548° WSW34.156°2025-07-09 01:09:58.980Z168.574° S
|